SCP
0 0 0 0 0 0 0 0 0 0 0 0 0 0 0 0 0 0 0 0 0 0 0 0 0 0 0 0 0 0 0 0 0 0 0 0 0 0 0 0 0 0 0
0 0 0 0 0 0 0 0 0 0 0 0 0 0 0 0 0 0 0 0 0 0 0 0 0 0 0 0 0 0 0 0 0 0 0 0 0 0 0 0 0 0 0
0 0 0 0 0 0 0 0 0 0 0 0 0 0 0 0 0 0 0 0 0 0 0 0 0 0 0 0 0 0 0 0 0 0 0 0 0 0 0 0 0 0 0
0 0 0 0 0 0 0 0 0 0 0 0 0 0 0 0 0 0 0 0 0 0 0 0 0 0 0 0 0 0 0 0 0 0 0 0 0 0 0 0 0 0 0
0 0 0 0 0 0 0 0 0 0 0 0 0 0 0 0 0 0 0 0 0 0 0 0 0 0 0 0 0 0 0 0 0 0 0 0 0 0 0 0 0 0 0
0 0 0 0 0 0 0 0 0 0 0 0 0 0 0 0 0 0 0 0 0 0 0 0 0 0 0 0 0 0 0 0 0 0 0 0 0 0 0 0 0 0 0
0 0 0 0 0 0 0 0 0 0 0 0 0 0 0 0 0 0 0 0 0 0 0 0 0 0 0 0 0 0 0 0 0 0 0 0 0 0 0 0 0 0 0
0 0 0 0 0 0 0 0 0 0 0 0 0 0 0 0 0 0 0 0 0 0 0 0 0 0 0 0 0 0 0 0 0 0 0 0 0 0 0 0 0 0 0
0 0 0 0 0 0 0 0 0 0 0 0 0 0 0 0 0 0 0 0 0 0 0 0 0 0 0 0 0 0 0 0 0 0 0 0 0 0 0 0 0 0 0
0 0 0 0 0 0 0 0 0 0 0 0 0 0 0 0 0 0 0 0 0 0 0 0 0 0 0 0 0 0 0 0 0 0 0 0 0 0 0 0 0 0 0
0 0 0 0 0 0 0 0 0 0 0 0 0 0 0 0 0 0 0 0 0 0 0 0 0 0 0 0 0 0 0 0 0 0 0 0 0 0 0 0 0 0 0
0 0 0 0 0 0 0 0 0 0 0 0 0 0 0 0 0 0 0 0 0 0 0 0 0 0 0 0 0 0 0 0 0 0 0 0 0 0 0 0 0 0 0
0 0 0 0 0 0 0 0 0 0 0 0 0 0 0 0 0 0 0 0 0 0 0 0 0 0 0 0 0 0 0 0 0 0 0 0 0 0 0 0 0 0 0
0 0 0 0 0 0 0 0 0 0 0 0 0 0 0 0 0 0 0 0 0 0 0 0 0 0 0 0 0 0 0 0 0 0 0 0 0 0 0 0 0 0 0
0 0 0 0 0 0 0 0 0 0 0 0 0 0 0 0 0 0 0 0 0 0 0 0 0 0 0 0 0 0 0 0 0 0 0 0 0 0 0 0 0 0 0
0 0 0 0 0 0 0 0 0 0 0 0 0 0 0 0 0 0 0 0 0 0 0 0 0 0 0 0 0 0 0 0 0 0 0 0 0 0 0 0 0 0 0
0 0 0 0 0 0 0 0 0 0 0 0 0 0 0 0 0 0 0 0 0 0 0 0 0 0 0 0 0 0 0 0 0 0 0 0 0 0 0 0 0 0 0
0 0 0 0 0 0 0 0 0 0 0 0 0 0 0 0 0 0 0 0 0 0 0 0 0 0 0 0 0 0 0 0 0 0 0 0 0 0 0 0 0 0 0
0 0 0 0 0 0 0 0 0 0 0 0 0 0 0 0 0 0 0 0 0 0 0 0 0 0 0 0 0 0 0 0 0 0 0 0 0 0 0 0 0 0 0
0 0 0 0 0 0 0 0 0 0 0 0 0 0 0 0 0 0 0 0 0 0 0 0 0 0 0 0 0 0 0 0 0 0 0 0 0 0 0 0 0 0 0
0 0 0 0 0 0 0 0 0 0 0 0 0 0 0 0 0 0 0 0 0 0 0 0 0 0 0 0 0 0 0 0 0 0 0 0 0 0 0 0 0 0 0
0 0 0 0 0 0 0 0 0 0 0 0 0 0 0 0 0 0 0 0 0 0 0 0 0 0 0 0 0 0 0 0 0 0 0 0 0 0 0 0 0 0 0
0 0 0 0 0 0 0 0 0 0 0 0 0 0 0 0 0 0 0 0 0 0 0 0 0 0 0 0 0 0 0 0 0 0 0 0 0 0 0 0 0 0 0
0 0 0 0 0 0 0 0 0 0 0 0 0 0 0 0 0 0 0 0 0 0 0 0 0 0 0 0 0 0 0 0 0 0 0 0 0 0 0 0 0 0 0
0 0 0 0 0 0 0 0 0 0 0 0 0 0 0 0 0 0 0 0 0 0 0 0 0 0 0 0 0 0 0 0 0 0 0 0 0 0 0 0 0 0 0
0 0 0 0 0 0 0 0 0 0 0 0 0 0 0 0 0 0 0 0 0 0 0 0 0 0 0 0 0 0 0 0 0 0 0 0 0 0 0 0 0 0 0
Wind_Speed
3 3 2 3 3 2 3 3 4 4 3 3 3 3 4 4 4 4 3 10 10 9 10 10 10 9 9 8 7 6 5 4 3 2 1 0 1 2 3 4 5 5 6
2 2 2 2 2 1 2 3 4 3 2 2 3 3 4 4 4 4 3 7 11 11 12 12 12 12 11 11 10 9 8 7 6 5 4 3 2 1 1 2 3 3 4
3 2 1 2 2 3 3 2 3 2 1 2 3 4 4 4 4 4 4 3 6 11 13 14 13 13 13 13 12 11 11 11 10 8 7 6 5 4 3 2 2 2 3
4 3 2 2 3 2 2 2 2 2 2 3 3 4 3 3 4 5 4 4 3 4 9 13 13 13 13 13 13 13 12 12 12 12 11 10 8 7 6 5 4 3 3
4 3 3 3 3 2 2 2 2 2 3 3 3 3 3 3 4 5 5 5 4 4 3 6 10 11 11 12 13 13 12 12 13 13 14 13 12 11 10 8 7 6 5
3 3 2 3 2 1 2 2 3 3 3 3 3 4 4 5 5 5 6 5 4 4 3 2 3 5 9 10 10 11 11 11 11 12 14 15 15 14 13 12 10 9 8
2 2 1 2 2 2 3 3 3 3 3 2 2 4 5 7 7 6 5 3 2 1 2 2 1 1 1 4 5 7 8 10 10 10 12 14 15 16 16 15 14 12 11
1 1 1 1 1 2 3 3 3 2 2 2 2 2 4 4 4 5 3 2 1 0 1 2 2 1 1 1 1 2 5 8 9 9 10 11 14 15 16 17 16 15 14
1 1 0 1 1 2 2 3 3 3 3 3 3 3 3 3 3 3 1 1 1 0 1 1 3 2 2 2 2 4 5 6 7 8 9 10 11 14 16 17 18 18 17
2 2 2 1 1 1 2 2 2 2 3 3 3 3 4 3 2 3 2 1 0 0 1 2 2 2 2 3 5 6 6 5 6 8 8 9 9 11 13 16 17 17 18
3 3 2 2 2 2 2 2 3 3 2 3 3 2 3 3 4 4 4 3 1 1 1 2 3 3 4 5 4 6 8 8 8 8 8 9 9 9 10 12 14 15 16
3 3 2 2 2 2 2 3 3 3 3 3 3 3 3 3 3 3 4 3 2 1 1 3 3 3 4 5 6 8 9 9 9 9 9 8 9 8 8 8 10 13 14
2 3 2 2 2 2 2 2 2 3 3 3 3 2 2 2 2 2 2 2 1 1 2 3 3 4 4 4 4 8 8 9 9 9 9 9 9 8 7 6 5 8 10
3 3 3 2 2 3 3 2 2 2 2 2 2 2 1 1 2 1 1 1 1 1 1 2 3 4 4 4 6 8 6 10 10 9 10 9 9 7 6 4 2 2 6
3 3 2 2 2 2 2 2 1 1 1 1 1 1 1 1 1 1 1 0 1 2 2 2 2 3 3 3 6 4 4 9 10 10 10 10 9 7 6 5 4 3 5
3 2 1 1 1 2 2 2 1 1 1 1 1 2 2 1 2 2 2 1 1 1 1 2 2 2 3 3 6 4 5 9 11 11 11 11 11 10 10 9 7 6 6
2 2 2 2 2 2 2 1 1 1 1 1 2 2 3 3 2 2 2 2 2 1 1 2 2 2 3 3 3 3 3 4 4 10 10 11 10 10 9 9 9 8 6
2 2 2 2 2 2 3 2 2 2 2 3 3 3 3 3 4 3 3 3 2 2 1 2 2 2 2 2 2 3 2 3 3 7 8 9 9 9 9 8 7 6 6
2 2 2 2 2 3 3 3 3 3 4 4 4 4 4 4 4 3 3 3 2 2 2 3 2 1 1 1 1 2 2 2 2 4 6 7 8 8 7 7 6 5 5
2 2 2 2 2 2 2 3 3 4 4 5 5 5 5 4 4 3 3 3 2 2 3 3 2 1 1 1 1 2 2 2 2 3 4 4 5 6 6 5 6 6 5
2 2 2 2 2 2 2 2 2 3 4 4 5 5 5 7 8 5 4 4 4 3 2 2 2 1 1 2 2 1 1 2 2 2 3 3 2 2 2 3 4 4 4
2 2 2 2 2 2 4 3 3 3 3 4 4 3 4 5 7 8 9 8 7 4 2 2 1 1 1 1 2 2 2 2 2 3 3 3 1 1 1 1 2 3 4
3 2 2 2 3 4 4 4 4 3 4 3 3 2 2 3 4 3 5 7 7 8 6 2 2 2 2 1 2 2 2 1 1 2 2 3 2 2 1 0 1 2 3
3 2 2 2 3 4 5 5 5 4 3 3 2 2 2 2 3 3 3 3 3 3 4 4 3 3 3 2 2 1 0 1 2 2 1 1 2 2 2 2 1 1 2
3 3 2 3 3 4 5 5 5 2 2 2 2 2 2 2 3 3 2 1 1 1 3 4 3 2 2 2 2 2 2 2 2 2 2 1 2 3 3 2 1 1 2
4 3 3 3 3 4 6 6 4 2 2 2 2 2 2 2 3 1 1 1 1 1 1 1 0 1 1 0 1 2 2 2 0 1 2 2 2 3 4 3 2 2 3
Wind_Direction
176 179 188 174 198 193 177 202 233 241 227 237 233 235 255 252 241 223 186 196 202 214 231 243 248 244 238 235 236 234 229 227 231 230 235 63 58 60 63 63 62 63 66
173 158 196 179 210 204 210 212 233 237 234 241 258 264 260 263 257 247 217 203 211 217 227 237 245 248 247 242 238 233 228 226 227 228 227 227 220 194 115 92 84 78 78
168 161 220 194 209 212 220 228 264 274 278 275 268 263 257 257 265 267 254 220 207 217 225 236 242 246 250 250 247 240 231 225 223 224 224 224 222 219 212 189 148 118 103
175 177 204 220 224 220 212 217 242 269 261 254 256 263 264 263 261 264 265 253 224 207 217 229 240 246 250 255 256 251 241 229 223 222 221 221 220 219 217 210 198 188 170
179 179 200 220 226 225 220 225 227 237 256 262 265 271 273 270 264 263 259 258 246 223 201 214 227 238 248 255 261 261 254 242 229 224 221 220 219 217 217 215 211 206 197
182 184 197 223 234 226 231 233 237 241 244 257 273 276 268 260 255 251 250 251 248 227 196 191 203 231 238 250 262 269 269 260 246 233 226 223 221 219 218 217 214 212 208
174 184 199 224 233 234 240 247 249 253 253 250 275 285 270 252 246 241 231 231 242 213 163 165 169 170 228 243 262 279 286 282 270 255 241 230 224 222 220 219 217 215 213
145 167 203 233 245 253 265 267 264 256 253 221 220 276 297 299 271 243 212 193 200 117 131 131 117 108 86 82 42 334 312 306 296 282 267 250 236 229 224 221 218 216 214
135 131 207 260 265 245 250 260 262 252 252 247 212 218 254 271 321 323 266 166 175 156 141 116 102 86 76 76 60 34 13 343 318 305 290 276 257 242 230 225 221 217 214
86 54 30 357 325 311 291 283 283 272 256 259 255 230 227 233 262 297 313 315 339 33 56 84 86 79 71 75 64 41 26 1 333 317 308 298 284 266 246 234 225 219 215
100 68 27 2 344 333 321 312 305 292 268 258 256 257 257 256 236 239 269 284 309 357 65 64 66 61 57 69 59 39 36 20 359 339 323 313 304 293 274 249 231 222 215
115 93 49 16 4 358 341 328 315 300 289 281 275 263 249 245 241 235 245 248 246 242 75 61 57 57 59 65 49 42 41 26 9 355 343 332 329 325 311 282 243 228 220
103 87 58 22 7 353 336 327 314 301 302 295 289 287 287 286 287 263 251 260 248 202 113 68 48 53 56 58 37 37 39 26 14 4 355 350 350 345 335 313 267 230 218
88 73 52 20 0 352 339 329 310 298 306 305 309 314 312 345 346 338 299 278 275 255 160 124 60 45 46 52 31 39 36 31 24 18 13 10 4 355 346 336 332 201 198
81 64 42 10 359 352 341 330 314 322 340 347 353 349 5 8 1 354 349 344 212 228 226 136 95 40 35 56 35 40 37 34 34 33 30 27 24 23 26 35 61 97 123
75 61 36 10 2 354 342 338 331 3 29 34 27 32 41 17 18 12 6 4 20 199 195 94 90 59 40 48 46 40 36 40 40 41 40 37 36 38 43 52 63 80 98
70 52 33 18 13 2 348 353 26 41 64 70 56 65 57 39 40 24 20 27 33 38 150 111 92 65 56 46 37 31 36 36 34 41 39 40 39 38 44 52 55 62 71
76 62 42 29 28 19 10 23 51 48 63 74 65 70 64 57 49 31 35 42 40 32 87 128 99 73 61 46 42 36 32 44 38 38 38 40 41 40 41 45 51 56 60
82 72 63 50 43 36 31 34 55 64 64 63 59 63 60 66 58 44 46 45 39 41 55 99 101 89 67 31 41 38 34 36 31 33 33 33 34 34 37 38 41 48 48
91 81 79 72 64 52 47 46 62 80 78 69 61 57 55 60 58 53 51 34 39 57 68 89 100 96 83 3 49 37 19 8 9 21 19 13 21 29 29 35 39 37 31
110 105 109 114 102 84 69 67 70 95 101 94 81 73 69 70 66 63 62 42 41 55 68 82 93 83 69 47 41 20 12 339 2 25 10 344 348 5 7 22 34 25 11
142 137 130 122 111 99 103 99 103 97 103 107 103 94 88 70 71 69 68 62 59 67 70 70 90 105 89 68 51 31 27 25 339 350 14 325 336 353 333 94 27 6 347
156 149 136 124 114 118 128 120 110 100 100 103 106 99 98 90 74 62 69 69 60 58 59 78 85 88 89 65 74 41 33 26 268 283 15 321 331 340 307 7 34 353 331
153 150 144 132 126 134 136 131 120 105 106 106 104 106 112 111 91 74 73 70 70 59 54 60 76 71 77 67 71 94 197 333 299 299 92 326 322 327 324 320 266 248 306
156 158 152 148 145 150 157 151 139 134 140 147 139 115 103 125 121 97 86 81 87 120 99 92 89 85 62 46 44 52 40 40 347 333 28 43 326 328 324 318 271 235 281
168 165 166 171 173 180 180 175 172 163 163 169 175 176 168 151 153 127 95 114 113 138 112 110 334 263 228 209 66 102 124 120 83 309 351 39 3 4 336 316 327 321 308